Regional Weather Roundup
Issued by NWS

Home | Current Version | Previous Version | Graphics & Text | Print | Product List | Glossary On
Versions: 1 2 3 4 5 6 7 8 9 10 11 12 13 14 15 16 17 18 19 20 21 22 23 24 25 26 27 28 29 30 31 32 33 34 35 36 37 38 39 40 41 42 43 44 45 46 47 48 49 50
215
ASUS44 KJAN 280910
RWRMS

MISSISSIPPI HOURLY WEATHER ROUNDUP
NATIONAL WEATHER SERVICE JACKSON MS
400 AM CDT THU AUG 28 2014

NOTE: "FAIR: INDICATES FEW OR NO CLOUDS BELOW 12,000 FEET WITH NO
SIGNIFICANT WEATHER AND/OR OBSTRUCTIONS TO VISIBILITY.

MSZ001>002-007>008-010>013-018>021-025>028-034>036-281000-
NORTHWEST MISSISSIPPI

CITY           SKY/WX    TMP DP  RH WIND       PRES   REMARKS
CLARKSDALE     FAIR      70  70 100 CALM      30.01S
CLEVELAND      FAIR      69  69  99 CALM      29.99F
GREENWOOD      PTCLDY    68  66  93 N5        29.99F
GREENVILLE     CLEAR     68  66  93 CALM      29.99S
GRENADA        FAIR      64  64 100 CALM      30.01S
OLIVE BRANCH   CLEAR     70  70 100 CALM      30.02S
OXFORD         FAIR      64  63  94 MISG      30.04S
TUNICA         SUNNY     68  66  94 CALM      30.02S FOG
$$

MSZ003>006-009-014>017-022>024-029>033-037>039-281000-
NORTHEAST MISSISSIPPI

CITY           SKY/WX    TMP DP  RH WIND       PRES   REMARKS
BELMONT        FAIR      69  68  96 CALM      30.03S
COLUMBUS AFB   CLEAR     67  66  98 N2        30.01S
CORINTH          N/A     70  68  94 CALM      30.02S
GOLDN TRIANGLE CLEAR     70  63  78 N3        30.01S
STARKVILLE     FAIR      64  64 100 CALM      30.01S
TUPELO         PTCLDY    70  67  90 NE5       30.01F
$$

MSZ040-058-281000-
CENTRAL MISSISSIPPI

CITY           SKY/WX    TMP DP  RH WIND       PRES   REMARKS
JACKSON INTL   CLEAR     70  66  87 CALM      30.00S
JACKSON HAWKNS CLEAR     72  67  84 CALM      30.00F
MERIDIAN KEY   CLEAR     65  63  93 S5        30.00S
MERIDIAN NAS   PTCLDY    67  64  90 CALM      30.00S
RAYMOND        FAIR      68  63  83 CALM      30.00S HAZE
VICKSBURG      CLEAR     68  66  93 CALM      29.99S
$$

MSZ059>079-281000-
SOUTH MISSISSIPPI

CITY           SKY/WX    TMP DP  RH WIND       PRES   REMARKS
BROOKHAVEN     FAIR      70  70 100 CALM      30.02S FOG
COLUMBIA       FAIR      72  72 100 CALM      29.98S FOG
HATTIESBURG    PTCLDY    72  70  93 CALM      29.99F
MCCOMB         PTCLDY    73  70  90 CALM      29.99F
NATCHEZ        MOCLDY    73  72  94 CALM      29.99F
PINE BELT      PTCLDY   N/A N/A N/A CALM      30.00S
$$

MSZ080>082-281000-
COASTAL MISSISSIPPI

CITY           SKY/WX    TMP DP  RH WIND       PRES   REMARKS
BILOXI         CLOUDY    78  74  88 NE6       29.97F
PASCAGOULA     MOCLDY    73  72  96 CALM      29.98S
GULFPORT       CLOUDY    78  73  84 CALM      29.97S
$$



USA.gov is the U.S. government's official web portal to all federal, state and local government web resources and services.